WetterOnline ( https://www.wetteronline.de )

Wetter aktuell Weidhausen

Aktuelles Wetter: Bamberg (243m)

6-stündlich | Neueste Meldungen
Ortszeit Temperatur Wetter
So, 17.10. 20:00 8.7° C bewölkt
So, 17.10. 14:00 10.4° C bedeckt
So, 17.10. 8:00 3.5° C bedeckt
So, 17.10. 2:00 0.1° C Nebel
Sa, 16.10. 20:00 3.6° C wolkenlos
Sa, 16.10. 14:00 8.8° C fast wolkenlos
Sa, 16.10. 8:00 4.3° C Nebel
Sa, 16.10. 2:00 4.4° C wolkenlos
Ortszeit Temperatur Wetter
So, 17.10. 23:30 8.8° C bedeckt
So, 17.10. 23:20 8.8° C bedeckt
So, 17.10. 23:10 8.7° C bedeckt
So, 17.10. 23:00 8.2° C bedeckt
So, 17.10. 22:50 8.2° C bedeckt
So, 17.10. 22:40 8.1° C bedeckt
So, 17.10. 22:30 7.8° C bedeckt
So, 17.10. 22:00 7.9° C bedeckt
So, 17.10. 21:30 7.9° C bedeckt
So, 17.10. 21:00 8.1° C bedeckt
So, 17.10. 20:30 8.3° C bedeckt
Ortszeit Relative Feuchte Sichtweite
So, 17.10. 20:00 92% 26 km
So, 17.10. 14:00 74% 50 km
So, 17.10. 8:00 95% 19 km
So, 17.10. 2:00 96% 100 m
Sa, 16.10. 20:00 94% 30 km
Sa, 16.10. 14:00 80% 30 km
Sa, 16.10. 8:00 97% 100 m
Sa, 16.10. 2:00 95% 13 km
Ortszeit Relative Feuchte Sichtweite
So, 17.10. 23:30 89% 29 km
So, 17.10. 23:20 89% -
So, 17.10. 23:10 88% -
So, 17.10. 23:00 92% 26 km
So, 17.10. 22:50 92% -
So, 17.10. 22:40 94% -
So, 17.10. 22:30 94% 20 km
So, 17.10. 22:00 95% 23 km
So, 17.10. 21:30 94% 22 km
So, 17.10. 21:00 94% 25 km
So, 17.10. 20:30 92% 30 km
Ortszeit Niederschlagsmenge Niederschlagsart
So, 17.10. 20:00 0.0 l/m2 in 12 Std. -
So, 17.10. 14:00 0.0 l/m2 in 6 Std. -
So, 17.10. 8:00 0.0 l/m2 in 12 Std. -
So, 17.10. 2:00 0.0 l/m2 in 6 Std. -
Sa, 16.10. 20:00 0.1 l/m2 in 12 Std. -
Sa, 16.10. 14:00 0.1 l/m2 in 6 Std. -
Sa, 16.10. 8:00 0.1 l/m2 in 12 Std. -
Sa, 16.10. 2:00 0.1 l/m2 in 6 Std. Regen
Ortszeit Niederschlagsmenge Niederschlagsart
So, 17.10. 23:30 0.0 l/m2 in 1 Std. -
So, 17.10. 23:20 keine Meldung -
So, 17.10. 23:10 keine Meldung -
So, 17.10. 23:00 0.0 l/m2 in 1 Std. -
So, 17.10. 22:50 keine Meldung -
So, 17.10. 22:40 keine Meldung -
So, 17.10. 22:30 0.0 l/m2 in 1 Std. -
So, 17.10. 22:00 0.0 l/m2 in 1 Std. -
So, 17.10. 21:30 0.0 l/m2 in 1 Std. -
So, 17.10. 21:00 0.0 l/m2 in 1 Std. -
So, 17.10. 20:30 0.0 l/m2 in 1 Std. -
Ortszeit Stärke Spitze Richtung
km/h Bft. km/h Grad Sektor
So, 17.10. 20:00 0 0 14 - -
So, 17.10. 14:00 6 1 11 30° NO
So, 17.10. 8:00 0 0 7 - -
So, 17.10. 2:00 0 0 4 - -
Sa, 16.10. 20:00 4 1 14 110° O
Sa, 16.10. 14:00 4 1 14 10° N
Sa, 16.10. 8:00 4 1 14 320° NW
Sa, 16.10. 2:00 0 0 18 - -
Ortszeit Stärke Spitze Richtung
km/h Bft. km/h Grad Sektor
So, 17.10. 23:30 4 1 7 340° N
So, 17.10. 23:20 4 1 - 340° N
So, 17.10. 23:10 4 1 - 350° N
So, 17.10. 23:00 4 1 7 360° N
So, 17.10. 22:50 4 1 - 360° N
So, 17.10. 22:40 2 1 - 340° N
So, 17.10. 22:30 0 0 4 - -
So, 17.10. 22:00 4 1 4 220° SW
So, 17.10. 21:30 0 0 4 - -
So, 17.10. 21:00 2 1 4 90° O
So, 17.10. 20:30 2 1 4 250° W
Ortszeit Untergrenze Bedeckung Gattung
total tief tief mittel hoch
So, 17.10. 20:00 1500 m 8/8 7/8 - - -
So, 17.10. 14:00 1500 m 8/8 8/8 - - -
So, 17.10. 8:00 1500 m 8/8 8/8 - - -
So, 17.10. 2:00 <30 m 8/8 0/8 - - -
Sa, 16.10. 20:00 - 0/8 0/8 - - -
Sa, 16.10. 14:00 240 m 1/8 1/8 - - -
Sa, 16.10. 8:00 <30 m 8/8 0/8 - - -
Sa, 16.10. 2:00 - 0/8 0/8 - - -
Ortszeit Bedeckungsgrad in Achtel und Wolkenuntergrenze
So, 17.10. 23:30 8(1800m)
So, 17.10. 23:20 8(1800m)
So, 17.10. 23:10 8(1800m)
So, 17.10. 23:00 8(1800m)
So, 17.10. 22:50 8(1800m)
So, 17.10. 22:40 8(1800m)
So, 17.10. 22:30 8(1800m)
So, 17.10. 22:00 8(1800m)
So, 17.10. 21:30 8(1800m)
So, 17.10. 21:00 8(1800m)
So, 17.10. 20:30 8(1500m) 8(6900m)
Ortszeit Luftdruck NN (hPa) Tendenz (hPa in 3 Std.)
So, 17.10. 20:00 1022 + 0,8
So, 17.10. 14:00 1022 - 0,7
So, 17.10. 8:00 1022 - 0,1
So, 17.10. 2:00 1023 + 0,2
Sa, 16.10. 20:00 1023 + 0,6
Sa, 16.10. 14:00 1023 - 0,8
Sa, 16.10. 8:00 1023 + 0,8
Sa, 16.10. 2:00 1022 + 0,8
Ortszeit Luftdruck NN (hPa) Tendenz (hPa in 3 Std.)
So, 17.10. 23:30 1023 + 1,0
So, 17.10. 23:20 1023 keine Meldung
So, 17.10. 23:10 1023 keine Meldung
So, 17.10. 23:00 1023 + 1,1
So, 17.10. 22:50 1023 keine Meldung
So, 17.10. 22:40 1023 keine Meldung
So, 17.10. 22:30 1023 + 1,2
So, 17.10. 22:00 1023 + 1,1
So, 17.10. 21:30 1023 + 1,0
So, 17.10. 21:00 1022 + 0,9
So, 17.10. 20:30 1022 + 1,0
Ortszeit Schneehöhe (cm)
So, 17.10. 20:00 0
So, 17.10. 14:00 0
So, 17.10. 8:00 0
So, 17.10. 2:00 0
Sa, 16.10. 20:00 0
Sa, 16.10. 14:00 0
Sa, 16.10. 8:00 0
Sa, 16.10. 2:00 0
Ortszeit Schneehöhe (cm)
So, 17.10. 23:30 0
So, 17.10. 23:20 0
So, 17.10. 23:10 0
So, 17.10. 23:00 0
So, 17.10. 22:50 0
So, 17.10. 22:40 0
So, 17.10. 22:30 0
So, 17.10. 22:00 0
So, 17.10. 21:30 0
So, 17.10. 21:00 0
So, 17.10. 20:30 0
Link zu dieser Seite / Seite empfehlen

Das Wetter in ...